ONEWEB-0020 (45133 NORAD) Tracking and Keplerian Element Data

This shows tracking and keplerian element data for the satellite.

Feedback or suggestion? Click here.




ElementValue
Catalog45133
NameONEWEB-0020
Epoch Orbit237
Epoch Day48.37565669
Epoch Year2020
RAAN160.9554
Inclination87.4048
Eccentricity0.0019201
Argument of Perigee262.0736
Mean Anonmoly97.8338
Mean Motion15.37745888
Decay Rate-1.116E-05
L11 45133U 20008C 20048.37565669 -.00001116 00000-0 -31234-4 0 9995
L22 45133 87.4048 160.9554 0019201 262.0736 97.8338 15.37745888 2374

Live tracking and technical data element details for ONEWEB-0020 (NORAD 45133). ONEWEB-0020 can be tracked NOW for your location showing map with azimuth and elevation plus other details from your city location.

Track the satellite on the map from your city or location and see movement details for azimuth, elevation, latitude, longitude, range, height, and movement on the map or in text.







IsCatalogInMostPopularTable: catalog: 45133, numindb: -1

Insert: records affected: 1


GetName: 45133 ONEWEB-0020

Hit Count: inserted at: Tue, 18 Feb 2020 01:55:58 GMT